Terminal Aerodrome Forecast
Issued by NWS

Home | Current Version | Previous Version | Text Only | Print | Product List | Glossary On
Versions: 1 2 3 4 5 6 7 8 9 10 11 12 13 14 15 16 17 18 19 20
000
FTUS43 KJKL 290500
TAFSME
TAF
KSME 290534Z 2906/3006 17004KT P6SM SCT200 WS020/23040KT
     FM291500 20014G25KT P6SM SCT050
     FM292200 19006KT P6SM SCT040 WS020/23045KT=

USA.gov is the U.S. government's official web portal to all federal, state and local government web resources and services.